Home   Weather   Le Petit Paris   Past weeks
Flag for France

Past Weather in Le Petit Paris, Drôme, France — Yesterday and Last 2 Weeks

Now
45 °F

Sunny.


Feels Like: 40 °F
Forecast: 50 / 41 °F
Wind: 8 mph from Southeast

Location: Grenoble / St. Geoirs

Current Time: Dec 12, 2019 at 3:12:07 pm

Latest Report: Dec 12, 2019 at 2:30 pm


Visibility: 10 mi

Pressure: 29.71 "Hg

Humidity: 49%

Dew Point: 27 °F

Location of Le Petit ParisLocation

Past Weather in Le Petit Paris — Graph

°F

Le Petit Paris Temperature Yesterday

Maximum temperature yesterday: 41 °F (at 2:30 pm)
Minimum temperature yesterday: 27 °F (at 2:00 am)
Average temperature yesterday: 35 °F

High & Low Weather Summary for the Past Weeks

 TemperatureHumidityPressure
High57 °F (Nov 27, 3:30 pm)100% (Nov 29, 6:30 pm)30.36 "Hg (Nov 29, 6:30 pm)
Low25 °F (Dec 4, 4:00 am)47% (Dec 7, 11:30 am)29.62 "Hg (Nov 27, 3:30 pm)
Average41 °F86%30.05 "Hg
* Reported Nov 27 2:00 pm — Dec 12 2:00 pm, Le Petit Paris. Weather by CustomWeather, © 2019

Note: Actual official high and low records may vary slightly from our data, if they occured in-between our weather recording intervals... More about our weather records

Le Petit Paris Weather History for the Previous 24 Hours

Scroll right to see more
 ConditionsComfort  
Time TempWeatherWind HumidityBarometerVisibility
2:00 pm
Thu, Dec 12
45 °FPassing clouds.5 mph53%29.74 "HgN/A
1:30 pm45 °FPassing clouds.3 mph49%29.77 "HgN/A
1:00 pm45 °FClear.6 mph53%29.77 "HgN/A
12:30 pm43 °FPassing clouds.3 mph53%29.80 "HgN/A
12:00 pm43 °FScattered clouds.3 mph57%29.83 "HgN/A
11:30 am43 °FScattered clouds.3 mph66%29.83 "HgN/A
11:00 am41 °FPassing clouds.3 mph76%29.86 "HgN/A
10:30 am39 °FPartly sunny.5 mph81%29.86 "HgN/A
10:00 am37 °FMore clouds than sun.6 mph93%29.86 "HgN/A
9:30 am36 °FCloudy.6 mph93%29.86 "HgN/A
9:00 am36 °FMostly cloudy.5 mph93%29.86 "HgN/A
8:30 am34 °FMostly cloudy.2 mph100%29.86 "HgN/A
8:00 am34 °FMostly cloudy.7 mph93%29.86 "HgN/A
7:30 am34 °FOvercast.6 mph93%29.86 "HgN/A
7:00 am34 °FOvercast.7 mph93%29.86 "HgN/A
6:30 am32 °FOvercast.5 mph100%29.86 "HgN/A
6:00 am32 °FMostly cloudy.6 mph100%29.86 "Hg5 mi
5:30 am30 °FPartly cloudy.8 mph100%29.86 "Hg4 mi
5:00 am32 °FPassing clouds.7 mph100%29.86 "HgN/A
4:30 am30 °FPassing clouds.5 mph100%29.86 "Hg6 mi
3:30 am34 °FFog.2 mph100%29.86 "Hg3 mi
3:00 am34 °FFog.7 mph100%29.86 "Hg3 mi
2:30 am36 °FLight rain. Mostly cloudy.8 mph100%29.86 "Hg4 mi
2:00 am36 °FLight rain. Fog.6 mph100%29.83 "Hg3 mi
1:30 am36 °FLight rain. Fog.5 mph100%29.86 "Hg2 mi
1:00 am36 °FFog.3 mph100%29.86 "Hg2 mi
12:30 am36 °FFog.6 mph100%29.83 "Hg1 mi
12:00 am34 °FFog.8 mph100%29.83 "Hg1 mi
11:30 pm
Wed, Dec 11
34 °FPassing clouds.10 mph100%29.86 "HgN/A
11:00 pm34 °FPassing clouds.10 mph100%29.86 "HgN/A
10:30 pm32 °FPassing clouds.7 mph100%29.86 "Hg6 mi
10:00 pm32 °FClear.7 mph100%29.89 "Hg10 mi
9:30 pm34 °FClear.7 mph93%29.89 "Hg10 mi
9:00 pm36 °FClear.7 mph93%29.92 "Hg10 mi
8:30 pm36 °FClear.9 mph93%29.92 "Hg10 mi
8:00 pm36 °FOvercast.9 mph100%29.95 "HgN/A
7:30 pm37 °FMostly cloudy.7 mph93%29.95 "HgN/A
7:00 pm37 °FLight rain. Mostly cloudy.2 mph93%29.98 "HgN/A
6:30 pm37 °FLight rain. Overcast.3 mph93%29.98 "Hg4 mi
6:00 pm37 °FLight rain. Mostly cloudy.3 mph100%29.98 "Hg4 mi
5:30 pm37 °FLight rain. Mostly cloudy.6 mph93%29.98 "Hg4 mi
5:00 pm39 °FLight rain. Mostly cloudy.6 mph87%29.98 "HgN/A
4:30 pm39 °FLight rain. Mostly cloudy.5 mph87%29.95 "HgN/A
4:00 pm39 °FLight rain. Mostly cloudy.2 mph87%29.95 "HgN/A
3:30 pm41 °FLight rain. More clouds than sun.2 mph87%29.95 "HgN/A
3:00 pm41 °FLight rain. Mostly cloudy.7 mph81%29.92 "HgN/A
Weather by CustomWeather, © 2019

See weather overview

Advertising